Terminal Aerodrome Forecast
Issued by NWS St Louis, MO

Home | Current Version | Previous Version | Text Only | Print | Product List | Glossary On
Versions: 1 2 3 4 5 6 7 8 9 10 11 12 13 14 15 16 17 18 19 20 21 22 23 24 25 26 27 28 29 30 31 32 33 34 35 36 37 38 39 40 41 42 43 44 45 46 47 48 49 50
000
FTUS43 KLSX 192134 AAD
TAFSTL
TAF AMD
KSTL 192134Z 1922/2024 31014G23KT P6SM SCT030
      TEMPO 1922/1924 BKN025
     FM200000 32010KT P6SM SCT030
     FM201500 32006KT P6SM BKN080
     FM202100 33006KT P6SM -SN OVC050=

USA.gov is the U.S. government's official web portal to all federal, state and local government web resources and services.